{"data":{"norad_id":54743,"epoch":"2026-09-20T03:13:58.123200Z","epoch_age_seconds":49885,"freshness":"FRESH","line1":"1 54743U 22170C   26263.13470050 -.00000012  00000+0  00000+0 0  9996","line2":"2 54743   0.7364  19.9607 0003857  93.6974 293.4113  1.00272705 13931","mean_motion":1.00272705,"eccentricity":0.0003857,"inclination_deg":0.7364,"raan_deg":19.9607,"arg_perigee_deg":93.6974,"mean_anomaly_deg":293.4113,"bstar":0,"rev_number":1393,"period_min":1436.0837278699,"perigee_km":35770.074216123,"apogee_km":35802.599891408,"semimajor_km":42164.474053766,"source":"CELESTRAK","updated_at":"2026-09-20T09:00:35.309663Z"}}